Regional Weather Roundup
Issued by NWS

Home | Current Version | Previous Version | Text Only | Print | Product List | Glossary On
Versions: 1 2 3 4 5 6 7 8 9 10 11 12 13 14 15 16 17 18 19 20 21 22 23 24 25 26 27 28 29 30 31 32 33 34 35 36 37 38 39 40 41 42 43 44 45 46 47 48 49 50
000
ASCA44 KEWX 300120
RWRMX

LATIN AMERICA AND CARIBBEAN REGIONAL WEATHER ROUNDUP
NATIONAL WEATHER SERVICE AUSTIN/SAN ANTONIO TX
800 PM CDT SAT AUG 29 2015

NOTE: "FAIR" INDICATED FEW OR NO CLOUDS BELOW 12,000 FEET WITH NO
SIGNIFICANT WEATHER AND/OR OBSTRUCTIONS TO VISIBILITY.

BAJA CALIFORNIA

CITY           SKY/WX    TMP DP  RH WIND       PRES   REMARKS
LORETO         PTCLDY    95  77  55 S7        29.72F HX 109
LA PAZ         CLEAR     95  70  43 NW9       29.76  HX 101
MEXICALI       SUNNY    109  50  14 S9        29.67  HX 106
S.J. DEL CABO  PTCLDY    90  70  51 SE13      29.79S HX  95
TIJUANA        SUNNY     82  63  51 W13       29.87S

NORTHWESTERN MEXICO

CITY           SKY/WX    TMP DP  RH WIND       PRES   REMARKS
CULIACAN       PTCLDY    95  81  63 W6        29.77  HX 115
DURANGO        CLEAR     82  25  12 N9        30.16
GUAYMAS        PTCLDY    97  82  63 CALM      29.69  HX 121
HERMOSILLO     MOCLDY   102  68  32 S14       29.78S HX 108
CD. JUAREZ     PTCLDY    90  59  35 E9        30.03
LOS MOCHIS     PTCLDY    91  75  59 SW9       29.76S HX 102
OBREGON        PTCLDY    97  72  44 SW8       29.72  HX 105

NORTHEASTERN MEXICO

CITY           SKY/WX    TMP DP  RH WIND       PRES   REMARKS
CHIHUAHUA      CLOUDY    84  50  30 W7        30.08
MATAMOROS      PTCLDY    84  75  74 E7        29.97  HX  92
MONCLOVA         N/A    N/A N/A N/A MISG        N/A
MONTERREY      PTCLDY    90  50  25 E8        29.92S
NUEVO LAREDO   CLEAR     99  55  23 CALM      29.89  HX  97
PIEDRAS NEGRAS   N/A    N/A N/A N/A MISG        N/A
REYNOSA        PTCLDY    84  66  54 E9G21     29.92
SALTILLO       CLEAR     77  61  57 N14       30.15R
TORREON        CLEAR     91  36  14 N6        30.01S
CD. VICTORIA     N/A    N/A N/A N/A MISG        N/A

WESTERN MEXICO

CITY           SKY/WX    TMP DP  RH WIND       PRES   REMARKS
AGUASCALIENTES PTCLDY    75  36  23 E7        30.17
COLIMA         MOCLDY    77  73  88 CALM      29.96R FOG
DEL BAJIO      PTCLDY    75  43  31 NE7       30.21R
GUADALAJARA    CLEAR     79  52  38 CALM      30.11
MANZANILLO     PTCLDY    90  81  74 W6        29.76  HX 108
MAZATLAN       PTCLDY    86  77  74 SW13      29.75S HX  97
P. VALLARTA    MOCLDY    86  79  79 SW7       29.79R HX  99
URUAPAN          N/A    N/A N/A N/A MISG        N/A
ZACATECAS      CLEAR     73  37  27 E12       30.22R

CENTRAL MEXICO

CITY           SKY/WX    TMP DP  RH WIND       PRES   REMARKS
CUERNAVACA       N/A    N/A N/A N/A MISG        N/A
MEXICO CITY    CLOUDY    66  55  68 NW6       30.28R
MORELIA        MOCLDY    70  57  64 SW8       30.15R
POZA RICA      MOCLDY    82  75  78 E7        29.96R
PUEBLA         LGT RAIN  63  54  72 E2        30.29R
QUERETARO      PTCLDY    70  50  49 E10       30.24R
S. LUIS POTOSI PTCLDY    70  45  40 E12       30.20R
TAMPICO        PTCLDY    84  73  70 E12       29.91R HX  91
TOLUCA         MOCLDY    63  54  72 S7        30.32R

SOUTHERN MEXICO

CITY           SKY/WX    TMP DP  RH WIND       PRES   REMARKS
ACAPULCO       MOCLDY    86  77  74 W12       29.79R HX  97
B. DE HUATULCO   N/A    N/A N/A N/A MISG        N/A
OAXACA         CLOUDY    72  54  53 NW3       30.15R
P. ESCONDIDO     N/A    N/A N/A N/A MISG        N/A
VERACRUZ       MOCLDY    82  75  78 E3        29.92R
ZIHUATANEJO    MOCLDY    81  73  78 CALM      29.82S

YUCATAN PENINSULA

CITY           SKY/WX    TMP DP  RH WIND       PRES   REMARKS
CAMPECHE       PTCLDY    86  79  79 N12       29.85R HX  99
CANCUN         MOCLDY    84  79  84 NE9       29.90S HX  96
CHETUMAL       MOCLDY    86  77  74 E12       29.87  HX  97
CD. DEL CARMEN   N/A    N/A N/A N/A MISG        N/A
COZUMEL        PTCLDY    79  77  94 E5        29.90R
MERIDA         MOCLDY    84  75  74 N7        29.91R HX  92
MINATITLAN     MOCLDY    82  68  61 N12       29.84
TAPACHULA      MOCLDY    81  75  83 NE3       29.82R
TUX. GUTIERREZ MOCLDY    77  68  73 NW13      29.89R
VILLAHERMOSA   MOCLDY    81  72  74 N7        29.89R

CENTRAL AMERICA

CITY           SKY/WX    TMP DP  RH WIND       PRES   REMARKS
BELIZE CITY    PTCLDY    84  79  84 E2        29.87R HX  96
MANAGUA        MOCLDY    86  72  62 E12       29.74S HX  92

CARIBBEAN

CITY           SKY/WX    TMP DP  RH WIND       PRES   REMARKS
ARUBA          PTCLDY    84  77  79 NE21G33   29.83S HX  94
KINGSTON       MOCLDY    86  77  74 SE16      29.89S HX  97
NASSAU         MOCLDY    81  75  83 SE21      30.00R
SAN JUAN       PTCLDY    82  73  74 E12       30.02R
SANTO DOMINGO  MOCLDY    77  72  83 N5        29.97S
ST. CROIX      PTCLDY    82  75  78 E12       30.00S
ST. KITTS      MOCLDY    82  79  89 E13       30.00R HX  93
ST. MAARTEN    MOCLDY    82  77  83 E13       30.00S HX  91
ST. THOMAS     CLEAR     84  75  74 E10       30.00S HX  92

$$



USA.gov is the U.S. government's official web portal to all federal, state and local government web resources and services.